Regional Weather Roundup
Issued by NWS

Home | Current Version | Previous Version | Graphics & Text | Print | Product List | Glossary On
Versions: 1 2 3 4 5 6 7 8 9 10 11 12 13 14 15 16 17 18 19 20 21 22 23 24 25 26 27 28 29 30 31 32 33 34 35 36 37 38 39 40 41 42 43 44 45 46 47 48 49 50
000
ASUS43 KMPX 220210
RWRMN
WEATHER ROUNDUP FOR MINNESOTA
NATIONAL WEATHER SERVICE TWIN CITIES/CHANHASSEN MN
900 PM CDT THU MAY 21 2015


NOTE: "FAIR" INDICATES FEW OR NO CLOUDS BELOW 12,000 FEET WITH NO
SIGNIFICANT WEATHER AND/OR OBSTRUCTIONS TO VISIBILITY. N/A MEANS
CURRENT SKY AND/OR WEATHER CONDITIONS ARE NOT AVAILABLE.

MNZ060>063-068>070-220300-
   Twin Cities Metro

CITY           SKY/WX    TMP DP  RH WIND       PRES   REMARKS
TWIN CITIES    CLEAR     65  31  28 NW6       30.05R
ST PAUL        CLEAR     62  36  37 NW7       30.04R
CRYSTAL        CLEAR     64  31  28 N5        30.04R
BLAINE         CLEAR     64  34  32 NW6       30.04R
LAKEVILLE      CLEAR     59  32  36 NW5       30.05R
EDEN PRAIRIE   CLEAR     64  32  30 NW3       30.04R
SOUTH ST PAUL  CLEAR     65  33  29 N3        30.04R
LAKE ELMO      FAIR      61  34  36 N5        30.05R
$$
MNZ001>005-007-008-013>017-022>024-027-028-220300-
   Northwest Minnesota

CITY           SKY/WX    TMP DP  RH WIND       PRES   REMARKS
BEMIDJI        CLEAR     59  32  36 CALM      30.09R
HALLOCK        PTCLDY    61  30  31 NE3       30.11S
ROSEAU         MOCLDY    57  39  51 NW8       30.10R
WARROAD        PTCLDY    54  43  66 CALM      30.10S
THIEF RVR FALL CLEAR     61  32  33 N6        30.11R
CROOKSTON      CLEAR     59  39  47 N7        30.11S
FOSSTON        CLEAR     55  34  44 CALM      30.10S
DETROIT LAKES  CLEAR     61  37  41 CALM      30.11R
MOORHEAD       CLEAR     61  41  48 NW8       30.11R
PARK RAPIDS    CLEAR     62  30  29 N7        30.08R
MAHNOMEN       FAIR      60  35  40 N8        30.09S
$$
MNZ006-009>011-018-025>026-220300-
   North Central Minnesota

CITY           SKY/WX    TMP DP  RH WIND       PRES   REMARKS
BAUDETTE       CLEAR     55  37  50 CALM      30.09R
FLAG ISLAND    CLEAR     57  37  47 CALM      30.08R
INTL FALLS     CLEAR     52  30  43 NW5       30.07S
WASKISH        CLEAR     55  36  47 CALM      30.09S
BIG FORK       CLEAR     55  27  33 N3        30.09R
LONGVILLE      CLEAR     52  36  54 CALM      30.08S
GRAND RAPIDS   CLEAR     57  28  33 NW8       30.08R
CRANE LAKE     CLEAR     48  30  49 CALM      30.08S
ORR            CLEAR     54  23  30 CALM      30.05R
COOK           CLEAR     54  27  35 CALM      30.08R
WALKER         FAIR      57  32  39 CALM      30.08S
$$
MNZ012-019>021-037-220300-
   Northeast Minnesota

CITY           SKY/WX    TMP DP  RH WIND       PRES   REMARKS
DULUTH         CLEAR     59  26  28 N7        30.04R
ELY            CLEAR     54  25  32 NW5       30.06R
HIBBING        CLEAR     55  26  32 N6        30.06R
EVELETH        CLEAR     57  28  33 N3        30.07R
DULUTH HARBOR  CLEAR     57  34  41 N10       30.04R
TWO HARBORS    CLEAR     61  34  36 N3        30.02R
SILVER BAY     CLEAR     55  27  33 CALM      30.03R
GRAND MARAIS     N/A     49  31  49 N5        30.03R
G MARAIS ARPRT CLEAR     46  23  39 NW3       30.05R
$$
MNZ029>031-032-039>041-046>048-054>057-064-220300-
   West Central Minnesota

CITY           SKY/WX    TMP DP  RH WIND       PRES   REMARKS
FERGUS FALLS   CLEAR     61  36  39 NW7       30.10R
WHEATON        CLEAR     57  36  44 N3        30.12S
MORRIS         CLEAR     61  37  41 NW8       30.09R
ALEXANDRIA     CLEAR     59  36  42 NW6       30.10R
ELBOW LAKE     FAIR      61  39  43 NW7       30.10R
WADENA         CLEAR     57  37  47 NW5       30.08R
GLENWOOD       CLEAR     61  36  39 NW5       30.10R
APPLETON       CLEAR     61  36  39 N7        30.10R
BENSON         CLEAR     57  36  44 N7        30.10R
ORTONVILLE     CLEAR     61  34  36 N8        30.10S
MADISON        CLEAR     57  30  35 N8        30.10R
WILLMAR        FAIR      61  37  41 N7        30.10R
$$
MNZ033>034-036-042>043-049>051-058-059-220300-
   Central Minnesota

CITY           SKY/WX    TMP DP  RH WIND       PRES   REMARKS
ST CLOUD       CLEAR     61  36  39 N5        30.06R
SAUK CENTRE    FAIR      59  37  43 W7        30.08R
PAYNESVILLE    CLEAR     57  35  43 W5        30.08R
AITKIN         CLEAR     57  27  30 NW3       30.06R
PINE RIVER     CLEAR     57  34  41 N3        30.11R
BRAINERD       CLEAR     58  32  37 N6        30.08R
STAPLES        CLEAR     61  30  31 NE5       30.08R
LONG PRAIRIE   FAIR      59  36  41 W6        30.08R
LITTLE FALLS   CLEAR     59  32  36 CALM      30.07R
LITCHFIELD     CLEAR     63  34  34 W5        30.08R
BUFFALO        CLEAR     64  35  34 CALM      30.06S
MAPLE LAKE     CLEAR     60  40  46 NW3       30.07R
$$
MNZ037-044-045-052-053-220300-
   East Central Minnesota

CITY           SKY/WX    TMP DP  RH WIND       PRES   REMARKS
PRINCETON      CLEAR     61  37  41 N5        30.06R
MORA           CLEAR     57  34  41 NW6       30.07R
CAMBRIDGE      CLEAR     63  41  45 CALM      30.04R
RUSH CITY      CLEAR     58  36  42 NW3       30.04S
MOOSE LAKE     PTCLDY    55  32  41 NW5       30.03R
HINCKLEY       FAIR      61  34  36 NW3       30.04R
CLOQUET        CLEAR     57  25  28 CALM      30.05R
MCGREGOR       CLEAR     59  32  36 NW7       30.06R
$$
MNZ071>073-080-081-089-090-097-098-220300-
   Southwest Minnesota

CITY           SKY/WX    TMP DP  RH WIND       PRES   REMARKS
MONTEVIDEO     CLEAR     63  32  31 N6        30.11R
GRANITE FALLS  CLEAR     62  31  31 NW7       30.11R
CANBY          CLEAR     64  30  28 N5        30.12R
MARSHALL       CLEAR     64  27  24 N9        30.09S
REDWOOD FALLS  CLEAR     62  32  32 NW9       30.08R
OLIVIA         CLEAR     59  32  36 NW5       30.08R
PIPESTONE      CLEAR     66  34  30 N5        30.11S
WINDOM         CLEAR     57  28  33 CALM      30.10R
WORTHINGTON    CLEAR     63  27  25 N7        30.11R
JACKSON        CLEAR     61  23  23 N6        30.11R
TRACY          CLEAR     64  29  26 N6        30.10S
SLAYTON        CLEAR     62  29  29 CALM      30.12R
$$
MNZ065>067-074>077-082>085-091>093-220300-
   South Central Minnesota

CITY           SKY/WX    TMP DP  RH WIND       PRES   REMARKS
MANKATO        CLEAR     64  32  29 NW6       30.07R
NEW ULM        CLEAR     63  30  29 NW7       30.08R
ST JAMES       CLEAR     64  30  27 W8        30.09R
FAIRMONT       CLEAR     64  28  25 NW8       30.08R
GLENCOE        CLEAR     64  38  37 CALM      30.06R
FARIBAULT      CLEAR     63  34  34 NW3       30.06R
OWATONNA       CLEAR     61  34  36 NW5       30.06R
WASECA         CLEAR     59  32  36 N6        30.07R
ALBERT LEA     CLEAR     64  30  27 CALM      30.06R
$$
MNZ078>079-086>088-094>096-220300-
   Southeast Minnesota

CITY           SKY/WX    TMP DP  RH WIND       PRES   REMARKS
ROCHESTER      CLEAR     58  34  40 NW9       30.06R
RED WING       CLEAR     63  30  29 N3        30.03R
STANTON        CLEAR     62  29  29 NW6       30.03R
DODGE CENTER   CLEAR     61  36  39 NW6       30.06R
WINONA         CLEAR     66  37  34 NW6       30.02R
AUSTIN         CLEAR     63  37  39 NW3       30.05R
PRESTON        CLEAR     60  35  38 NW7       30.04R
$$
ABBREVIATIONS USED IN REMARKS
   TC - TEMPERATURES IN CELSIUS
  WCI - WIND CHILL INDEX
   HX - HEAT INDEX
  VSB - VISIBILITY
$$



USA.gov is the U.S. government's official web portal to all federal, state and local government web resources and services.